Date,TemperatureHighF,TemperatureAvgF,TemperatureLowF,DewpointHighF,DewpointAvgF,DewpointLowF,HumidityHigh,HumidityAvg,HumidityLow,PressureMaxIn,PressureMinIn,WindSpeedMaxMPH,WindSpeedAvgMPH,GustSpeedMaxMPH,PrecipitationSumIn
2012-1-1,76,73,65,-100,-100,-100,0,0,100,30.27,30.17,11,7,14,0.00
2012-1-2,76,67,55,-100,-100,-100,0,0,100,30.19,30.05,20,9,25,0.00
2012-1-3,55,50,44,-100,-100,-100,0,0,100,30.36,30.16,30,15,45,0.00
2012-1-4,62,52,41,-100,-100,-100,0,0,100,30.38,30.27,18,13,23,0.00
2012-1-5,66,58,48,-100,-100,-100,0,0,100,30.30,30.19,14,8,17,0.00
2012-1-6,68,61,52,-100,-100,-100,0,0,100,30.25,30.15,10,6,11,0.00
2012-1-7,74,66,58,-100,-100,-100,0,0,100,30.22,30.12,9,5,13,0.00
2012-1-8,73,68,61,-100,-100,-100,0,0,100,30.25,30.16,14,9,17,0.00
2012-1-9,74,72,71,-100,-100,-100,0,0,100,30.22,30.11,17,11,21,0.00
2012-1-10,78,72,64,-100,-100,-100,0,0,100,30.12,30.00,15,7,16,0.00
2012-1-11,75,72,66,-100,-100,-100,0,0,100,30.01,29.82,33,13,36,0.00
2012-1-12,75,71,66,-100,-100,-100,0,0,100,29.99,29.85,17,-6,20,0.00
2012-1-13,70,67,64,-100,-100,-100,0,0,100,30.17,29.99,13,6,16,0.00
2012-1-14,64,57,53,-100,-100,-100,0,0,100,30.35,30.16,18,13,24,0.00
2012-1-15,64,58,49,-100,-100,-100,0,0,100,30.44,30.33,23,14,28,0.00
2012-1-16,70,67,59,-100,-100,-100,0,0,100,30.43,30.32,23,18,28,0.00
2012-1-17,73,72,69,-100,-100,-100,0,0,100,30.34,30.18,20,12,24,0.00
2012-1-18,78,70,62,-100,-100,-100,0,0,100,30.18,29.98,15,0,17,0.00
2012-1-19,71,68,64,-100,-100,-100,0,0,100,30.15,30.00,24,13,28,0.00
2012-1-20,72,70,69,-100,-100,-100,0,0,100,30.22,30.12,16,10,20,0.00
2012-1-21,73,72,70,-100,-100,-100,0,0,100,30.17,30.06,16,12,20,0.00
2012-1-22,74,70,63,-100,-100,-100,0,0,100,30.14,30.06,15,9,17,0.00
2012-1-23,75,74,70,-100,-100,-100,0,0,100,30.14,30.09,18,12,22,0.00
2012-1-24,75,74,70,-100,-100,-100,0,0,100,30.19,30.10,21,12,23,0.00
2012-1-25,75,74,73,-100,-100,-100,0,0,100,30.20,30.11,18,14,21,0.00
2012-1-26,76,74,72,-100,-100,-100,0,0,100,30.14,30.01,22,18,26,0.00
2012-1-27,78,75,71,-100,-100,-100,0,0,100,30.08,29.96,24,15,29,0.00
2012-1-28,75,71,69,-100,-100,-100,0,0,100,30.16,30.06,17,8,20,0.00
2012-1-29,73,72,70,-100,-100,-100,0,0,100,30.26,30.13,22,16,25,0.00
2012-1-30,72,71,70,-100,-100,-100,0,0,100,30.32,30.21,24,12,29,0.00
2012-1-31,72,71,70,-100,-100,-100,0,0,100,30.34,30.24,21,15,26,0.00
2012-2-1,75,73,70,-100,-100,-100,0,0,100,30.26,30.15,20,13,23,0.00
2012-2-2,75,70,67,-100,-100,-100,0,0,100,30.18,30.10,20,9,22,0.00
2012-2-3,75,74,73,-100,-100,-100,0,0,100,30.22,30.12,26,19,30,0.00
2012-2-4,74,73,72,-100,-100,-100,0,0,100,30.19,30.07,26,20,30,0.00
2012-2-5,76,75,72,-100,-100,-100,0,0,100,30.08,30.00,17,12,22,0.00
2012-2-6,76,74,69,-100,-100,-100,0,0,100,30.08,29.99,22,13,24,0.00
2012-2-7,76,74,70,-100,-100,-100,0,0,100,30.04,29.94,17,9,21,0.00
2012-2-8,75,71,68,-100,-100,-100,0,0,100,30.06,29.98,25,12,29,0.00
2012-2-9,74,72,69,-100,-100,-100,0,0,100,30.11,30.01,24,19,29,0.00
2012-2-10,76,74,71,-100,-100,-100,0,0,100,30.08,29.89,22,14,24,0.00
2012-2-11,72,66,56,-100,-100,-100,0,0,100,30.07,29.87,22,12,31,0.00
2012-2-12,56,52,46,-100,-100,-100,0,0,100,30.27,30.07,28,19,33,0.00
2012-2-13,67,59,48,-100,-100,-100,0,0,100,30.24,30.14,16,12,22,0.00
2012-2-14,73,69,62,-100,-100,-100,0,0,100,30.16,30.09,17,12,20,0.00
2012-2-15,75,72,65,-100,-100,-100,0,0,100,30.22,30.13,16,9,21,0.00
2012-2-16,74,74,73,-100,-100,-100,0,0,100,30.21,30.09,17,14,20,0.00
2012-2-17,78,73,68,-100,-100,-100,0,0,100,30.11,30.01,18,8,20,0.00
2012-2-18,76,73,68,-100,-100,-100,0,0,100,30.04,29.92,21,10,23,0.00
2012-2-19,84,77,71,-100,-100,-100,0,0,100,29.97,29.84,21,14,30,0.00
2012-2-20,71,66,61,-100,-100,-100,0,0,100,30.17,29.93,22,14,26,0.00
2012-2-21,72,70,68,-100,-100,-100,0,0,100,30.23,30.14,20,11,23,0.00
2012-2-22,74,71,64,-100,-100,-100,0,0,100,30.16,29.96,22,12,23,0.00
2012-2-23,78,73,67,-100,-100,-100,0,0,100,30.02,29.93,22,10,24,0.00
2012-2-24,77,74,71,-100,-100,-100,0,0,100,30.06,29.96,24,14,26,0.00
2012-2-25,77,71,70,-100,-100,-100,0,0,100,30.20,30.03,26,15,33,0.00
2012-2-26,74,72,70,-100,-100,-100,0,0,100,30.28,30.19,25,20,29,0.00
2012-2-27,77,75,73,-100,-100,-100,0,0,100,30.29,30.22,23,17,26,0.00
2012-2-28,77,76,75,-100,-100,-100,0,0,100,30.27,30.19,16,12,18,0.00
2012-2-29,76,75,73,-100,-100,-100,0,0,100,30.24,30.12,21,15,26,0.00
2012-3-1,77,76,72,-100,-100,-100,0,0,100,30.15,30.03,20,13,23,0.00
2012-3-2,77,75,71,-100,-100,-100,0,0,100,30.08,29.99,21,-24,23,0.00
2012-3-3,77,76,76,-100,-100,-100,0,0,100,30.00,29.87,25,20,29,0.00
2012-3-4,80,69,59,-100,-100,-100,0,0,100,30.19,29.84,26,16,53,0.00
2012-3-5,69,62,55,-100,-100,-100,0,0,100,30.34,30.19,25,15,29,0.00
2012-3-6,73,71,68,-100,-100,-100,0,0,100,30.38,30.28,31,23,37,0.00
2012-3-7,73,72,71,-100,-100,-100,0,0,100,30.37,30.28,29,24,32,0.00
2012-3-8,76,74,70,-100,-100,-100,0,0,100,30.28,30.17,26,21,30,0.00
2012-3-9,76,76,74,-100,-100,-100,0,0,100,30.22,30.11,21,15,24,0.00
2012-3-10,76,74,70,-100,-100,-100,0,0,100,30.20,30.09,18,9,22,0.00
2012-3-11,76,74,71,-100,-100,-100,0,0,100,30.28,30.17,28,20,34,0.00
2012-3-12,74,72,71,-100,-100,-100,0,0,100,30.30,30.20,25,18,29,0.00
2012-3-13,74,73,72,-100,-100,-100,0,0,100,30.25,30.18,18,11,22,0.00
2012-3-14,74,74,72,-100,-100,-100,0,0,100,30.23,30.13,21,14,25,0.00
2012-3-15,75,74,71,-100,-100,-100,0,0,100,30.23,30.13,26,18,31,0.00
2012-3-16,75,74,73,-100,-100,-100,0,0,100,30.24,30.13,21,14,24,0.00
2012-3-17,74,74,72,-100,-100,-100,0,0,100,30.23,30.14,17,12,20,0.00
2012-3-18,75,74,72,-100,-100,-100,0,0,100,30.24,30.15,21,14,24,0.00
2012-3-19,75,74,73,-100,-100,-100,0,0,100,30.19,30.09,20,13,22,0.00
2012-3-20,76,74,73,-100,-100,-100,0,0,100,30.13,30.04,21,16,25,0.00
2012-3-21,76,75,70,-100,-100,-100,0,0,100,30.16,30.05,28,20,31,0.00
2012-3-22,76,76,75,-100,-100,-100,0,0,100,30.18,30.09,22,16,25,0.00
2012-3-23,76,75,71,-100,-100,-100,0,0,100,30.14,30.05,22,11,25,0.00
2012-3-24,76,75,68,-100,-100,-100,0,0,100,30.07,29.95,21,12,23,0.00
2012-3-25,81,76,71,-100,-100,-100,0,0,100,29.99,29.81,22,11,29,0.00
2012-3-26,76,71,65,-100,-100,-100,0,0,100,30.00,29.88,21,11,24,0.00
2012-3-27,76,74,71,-100,-100,-100,0,0,100,30.18,29.99,23,15,26,0.00
2012-3-28,74,74,73,-100,-100,-100,0,0,100,30.19,30.09,22,17,25,0.00
2012-3-29,75,74,71,-100,-100,-100,0,0,100,30.10,30.01,16,9,17,0.00
2012-3-30,75,73,67,-100,-100,-100,0,0,100,30.10,30.00,15,8,17,0.00
2012-3-31,77,74,70,-100,-100,-100,0,0,100,30.04,29.88,28,13,33,0.00
2012-4-1,78,74,69,-100,-100,-100,0,0,100,29.96,29.88,15,7,16,0.00
2012-4-2,80,76,69,-100,-100,-100,0,0,100,29.94,29.86,15,8,17,0.00
2012-4-3,80,76,71,-100,-100,-100,0,0,100,29.99,29.91,15,9,17,0.00
2012-4-4,79,76,72,-100,-100,-100,0,0,100,30.00,29.84,23,12,25,0.00
2012-4-5,87,78,71,-100,-100,-100,0,0,100,29.90,29.74,20,10,24,0.00
2012-4-6,87,78,73,-100,-100,-100,0,0,100,29.91,29.74,21,12,29,0.00
2012-4-7,76,74,72,-100,-100,-100,0,0,100,30.12,29.90,28,21,31,0.00
2012-4-8,73,72,71,-100,-100,-100,0,0,100,30.18,30.10,22,13,25,0.00
2012-4-9,75,73,71,-100,-100,-100,0,0,100,30.11,30.02,15,10,17,0.00
2012-4-10,78,74,68,-100,-100,-100,0,0,100,30.11,30.01,13,-16,14,0.00
2012-4-11,80,75,68,-100,-100,-100,0,0,100,30.07,29.96,14,8,15,0.00
2012-4-12,77,74,67,-100,-100,-100,0,0,100,30.06,29.96,18,10,22,0.00
2012-4-13,76,75,69,-100,-100,-100,0,0,100,30.13,30.01,24,16,28,0.00
2012-4-14,75,73,69,-100,-100,-100,0,0,100,30.24,30.09,29,23,34,0.00
2012-4-15,76,73,72,-100,-100,-100,0,0,100,30.23,30.16,22,18,26,0.00
2012-4-16,77,76,75,-100,-100,-100,0,0,100,30.23,30.12,25,18,29,0.00
2012-4-17,76,75,74,-100,-100,-100,0,0,100,30.19,30.09,24,15,28,0.00
2012-4-18,76,75,74,-100,-100,-100,0,0,100,30.12,29.99,20,14,22,0.00
2012-4-19,76,76,75,-100,-100,-100,0,0,100,30.02,29.91,18,15,21,0.00
2012-4-20,78,75,68,-100,-100,-100,0,0,100,29.97,29.84,22,13,25,0.00
2012-4-21,76,73,68,-100,-100,-100,0,0,100,29.94,29.69,32,18,34,0.00
2012-4-22,80,74,66,-100,-100,-100,0,0,100,29.75,29.57,31,15,37,0.00
2012-4-23,78,70,65,-100,-100,-100,0,0,100,29.93,29.73,21,11,31,0.00
2012-4-24,70,65,59,-100,-100,-100,0,0,100,30.05,29.90,17,1,24,0.00
2012-4-25,73,68,59,-100,-100,-100,0,0,100,30.14,30.03,15,9,17,0.00
2012-4-26,75,72,65,-100,-100,-100,0,0,100,30.17,30.08,16,8,18,0.00
2012-4-27,77,75,71,-100,-100,-100,0,0,100,30.15,30.06,16,9,20,0.00
2012-4-28,77,75,68,-100,-100,-100,0,0,100,30.11,30.05,24,12,28,0.00
2012-4-29,77,74,73,-100,-100,-100,0,0,100,30.09,30.01,29,20,32,0.00
2012-4-30,76,75,73,-100,-100,-100,0,0,100,30.08,30.01,30,25,36,0.00
2012-5-1,77,76,71,-100,-100,-100,0,0,100,30.10,30.02,29,20,32,0.00
2012-5-2,77,77,76,-100,-100,-100,0,0,100,30.12,30.02,22,18,25,0.00
2012-5-3,78,77,76,-100,-100,-100,0,0,100,30.12,30.05,22,15,24,0.00
2012-5-4,78,77,76,-100,-100,-100,0,0,100,30.12,30.03,18,11,21,0.00
2012-5-5,78,77,76,-100,-100,-100,0,0,100,30.05,29.96,15,11,17,0.00
2012-5-6,79,76,72,-100,-100,-100,0,0,100,30.01,29.90,20,10,21,0.00
2012-5-7,81,77,73,-100,-100,-100,0,0,100,29.95,29.86,20,10,22,0.00
2012-5-8,79,75,73,-100,-100,-100,0,0,100,29.94,29.88,21,1,22,0.00
2012-5-9,81,76,73,-100,-100,-100,0,0,100,29.93,29.81,26,-12,38,0.00
2012-5-10,85,78,74,-100,-100,-100,0,0,100,29.91,29.80,18,8,21,0.00
2012-5-11,80,78,74,-100,-100,-100,0,0,100,30.10,29.89,21,14,23,0.00
2012-5-12,78,78,77,-100,-100,-100,0,0,100,30.19,30.07,22,18,25,0.00
2012-5-13,78,77,76,-100,-100,-100,0,0,100,30.14,30.03,20,15,22,0.00
2012-5-14,80,79,78,-100,-100,-100,0,0,100,30.08,29.95,15,11,17,0.00
2012-5-15,80,78,72,-100,-100,-100,0,0,100,30.03,29.96,18,8,22,0.00
2012-5-16,81,78,74,-100,-100,-100,0,0,100,30.03,29.93,9,5,13,0.00
2012-5-17,81,76,70,-100,-100,-100,0,0,100,29.99,29.88,21,4,24,0.00
2012-5-18,81,77,73,-100,-100,-100,0,0,100,29.96,29.89,31,6,40,0.00
2012-5-19,79,76,72,-100,-100,-100,0,0,100,29.99,29.90,21,-22,25,0.00
2012-5-20,80,76,72,-100,-100,-100,0,0,100,29.99,29.91,14,8,15,0.00
2012-5-21,81,78,71,-100,-100,-100,0,0,100,30.00,29.93,16,-13,20,0.00
2012-5-22,80,77,72,-100,-100,-100,0,0,100,30.01,29.91,23,11,29,0.00
2012-5-23,79,78,76,-100,-100,-100,0,0,100,29.95,29.87,26,15,30,0.00
2012-5-24,79,77,74,-100,-100,-100,0,0,100,29.91,29.84,23,12,30,0.00
2012-5-25,80,77,72,-100,-100,-100,0,0,100,30.04,29.89,15,8,17,0.00
2012-5-26,80,79,76,-100,-100,-100,0,0,100,30.05,29.97,14,-21,16,0.00
2012-5-27,83,78,71,-100,-100,-100,0,0,100,29.98,29.86,29,12,31,0.00
2012-5-28,81,79,73,-100,-100,-100,0,0,100,29.99,29.90,22,13,31,0.00
2012-5-29,81,80,73,-100,-100,-100,0,0,100,30.00,29.91,24,11,28,0.00
2012-5-30,88,80,75,-100,-100,-100,0,0,100,29.97,29.84,23,10,25,0.00
2012-5-31,82,79,76,-100,-100,-100,0,0,100,29.97,29.88,18,9,22,0.00
2012-6-1,80,77,73,-100,-100,-100,0,0,100,30.00,29.88,23,10,26,0.00
2012-6-2,87,80,76,-100,-100,-100,0,0,100,29.98,29.89,17,9,22,0.00
2012-6-3,85,79,74,-100,-100,-100,0,0,100,30.05,29.95,13,8,18,0.00
2012-6-4,90,84,79,-100,-100,-100,0,0,100,30.02,29.88,15,10,22,0.00
2012-6-5,87,81,78,-100,-100,-100,0,0,100,29.91,29.83,20,-20,22,0.00
2012-6-6,84,80,74,-100,-100,-100,0,0,100,29.98,29.89,23,-86,26,0.00
2012-6-7,88,82,79,-100,-100,-100,0,0,100,29.99,29.93,16,9,20,0.00
2012-6-8,83,79,71,-100,-100,-100,0,0,100,30.00,29.92,22,-8,31,0.00
2012-6-9,82,80,76,-100,-100,-100,0,0,100,30.05,29.95,17,2,18,0.00
2012-6-10,83,82,81,-100,-100,-100,0,0,100,30.14,30.00,14,10,16,0.00
2012-6-11,82,81,80,-100,-100,-100,0,0,100,30.14,30.06,14,10,17,0.00
2012-6-12,80,79,78,-100,-100,-100,0,0,100,30.11,29.99,14,8,17,0.00
2012-6-13,83,80,75,-100,-100,-100,0,0,100,30.01,29.90,17,8,20,0.00
2012-6-14,86,80,76,-100,-100,-100,0,0,100,30.01,29.90,17,6,23,0.00
2012-6-15,82,79,75,-100,-100,-100,0,0,100,30.03,29.91,18,10,22,0.00
2012-6-16,81,80,76,-100,-100,-100,0,0,100,30.05,29.95,21,16,24,0.00
2012-6-17,80,80,79,-100,-100,-100,0,0,100,30.05,29.96,18,15,22,0.00
2012-6-18,81,80,78,-100,-100,-100,0,0,100,30.05,29.95,22,16,24,0.00
2012-6-19,81,80,77,-100,-100,-100,0,0,100,30.06,29.99,28,21,32,0.00
2012-6-20,81,78,74,-100,-100,-100,0,0,100,30.03,29.96,29,16,34,0.00
2012-6-21,81,80,76,-100,-100,-100,0,0,100,30.01,29.89,17,12,20,0.00
2012-6-22,81,79,75,-100,-100,-100,0,0,100,29.97,29.85,22,12,24,0.00
2012-6-23,82,79,73,-100,-100,-100,0,0,100,30.03,29.87,18,-24,29,0.00
2012-6-24,83,80,76,-100,-100,-100,0,0,100,30.01,29.87,29,20,36,0.00
2012-6-25,83,82,82,-100,-100,-100,0,0,100,29.88,29.78,31,25,36,0.00
2012-6-26,88,84,78,-100,-100,-100,0,0,100,29.79,29.72,32,20,39,0.00
2012-6-27,88,82,76,-100,-100,-100,0,0,100,30.01,29.76,26,16,36,0.00
2012-6-28,82,79,74,-100,-100,-100,0,0,100,30.09,30.00,15,8,17,0.00
2012-6-29,83,82,80,-100,-100,-100,0,0,100,30.08,29.96,15,8,16,0.00
2012-6-30,84,82,78,-100,-100,-100,0,0,100,30.02,29.94,15,10,17,0.00
2012-7-1,84,82,79,-100,-100,-100,0,0,100,30.10,29.99,15,9,17,0.00
2012-7-2,84,82,80,-100,-100,-100,0,0,100,30.12,30.01,17,9,21,0.00
2012-7-3,84,82,79,-100,-100,-100,0,0,100,30.10,30.01,14,-31,16,0.00
2012-7-4,84,83,82,-100,-100,-100,0,0,100,30.11,30.03,14,8,16,0.00
2012-7-5,84,82,79,-100,-100,-100,0,0,100,30.08,30.00,13,-8,16,0.00
2012-7-6,83,83,82,-100,-100,-100,0,0,100,30.07,30.02,16,9,20,0.00
2012-7-7,84,83,82,-100,-100,-100,0,0,100,30.11,30.04,17,9,21,0.00
2012-7-8,84,82,80,-100,-100,-100,0,0,100,30.10,30.03,16,9,20,0.00
2012-7-9,83,82,78,-100,-100,-100,0,0,100,30.07,29.99,14,8,16,0.00
2012-7-10,84,82,73,-100,-100,-100,0,0,100,30.06,29.97,18,10,24,0.00
2012-7-11,81,78,74,-100,-100,-100,0,0,100,30.08,29.97,24,9,29,0.00
2012-7-12,83,80,78,-100,-100,-100,0,0,100,30.05,29.98,16,7,23,0.00
2012-7-13,83,82,80,-100,-100,-100,0,0,100,30.07,30.00,21,12,23,0.00
2012-7-14,83,82,78,-100,-100,-100,0,0,100,30.10,30.00,23,14,30,0.00
2012-7-15,82,79,74,-100,-100,-100,0,0,100,30.13,30.05,17,10,21,0.00
2012-7-16,80,78,73,-100,-100,-100,0,0,100,30.12,30.01,16,8,21,0.00
2012-7-17,84,79,75,-100,-100,-100,0,0,100,30.06,29.98,20,7,23,0.00
2012-7-18,84,82,76,-100,-100,-100,0,0,100,30.15,30.02,20,9,22,0.00
2012-7-19,84,83,80,-100,-100,-100,0,0,100,30.20,30.12,16,9,17,0.00
2012-7-20,84,83,82,-100,-100,-100,0,0,100,30.16,30.06,15,11,17,0.00
2012-7-21,85,84,83,-100,-100,-100,0,0,100,30.13,30.05,17,12,20,0.00
2012-7-22,85,81,74,-100,-100,-100,0,0,100,30.15,30.06,24,12,30,0.00
2012-7-23,83,80,76,-100,-100,-100,0,0,100,30.19,30.11,26,12,30,0.00
2012-7-24,84,82,73,-100,-100,-100,0,0,100,30.16,30.03,23,12,34,0.00
2012-7-25,86,82,77,-100,-100,-100,0,0,100,30.09,30.01,17,9,20,0.00
2012-7-26,87,83,80,-100,-100,-100,0,0,100,30.06,29.99,18,9,20,0.00
2012-7-27,86,83,80,-100,-100,-100,0,0,100,30.12,30.01,16,9,17,0.00
2012-7-28,84,83,80,-100,-100,-100,0,0,100,30.13,30.05,17,-6,20,0.00
2012-7-29,85,83,80,-100,-100,-100,0,0,100,30.12,30.02,14,9,16,0.00
2012-7-30,85,83,80,-100,-100,-100,0,0,100,30.08,29.99,15,8,18,0.00
2012-7-31,85,82,78,-100,-100,-100,0,0,100,30.07,29.98,17,-6,18,0.00
2012-8-1,87,83,77,-100,-100,-100,0,0,100,30.04,29.95,18,9,28,0.00
2012-8-2,87,84,80,-100,-100,-100,0,0,100,30.01,29.94,17,8,18,0.00
2012-8-3,85,82,74,-100,-100,-100,0,0,100,30.03,29.93,37,10,44,0.00
2012-8-4,85,82,77,-100,-100,-100,0,0,100,30.08,29.95,21,10,22,0.00
2012-8-5,85,84,79,-100,-100,-100,0,0,100,30.11,30.02,20,13,23,0.00
2012-8-6,84,81,76,-100,-100,-100,0,0,100,30.09,30.01,29,-1,31,0.00
2012-8-7,85,84,76,-100,-100,-100,0,0,100,30.07,29.97,16,11,20,0.00
2012-8-8,85,84,83,-100,-100,-100,0,0,100,30.07,29.99,14,10,16,0.00
2012-8-9,85,84,83,-100,-100,-100,0,0,100,30.05,29.94,18,12,22,0.00
2012-8-10,84,81,78,-100,-100,-100,0,0,100,30.02,29.95,21,13,26,0.00
2012-8-11,83,79,75,-100,-100,-100,0,0,100,30.05,29.95,21,10,23,0.00
2012-8-12,85,80,76,-100,-100,-100,0,0,100,30.07,29.99,18,5,21,0.00
2012-8-13,85,82,78,-100,-100,-100,0,0,100,30.09,30.01,10,-9,11,0.00
2012-8-14,87,84,81,-100,-100,-100,0,0,100,30.07,29.98,14,-1,15,0.00
2012-8-15,85,84,81,-100,-100,-100,0,0,100,30.06,29.99,18,-27,21,0.00
2012-8-16,86,84,81,-100,-100,-100,0,0,100,30.10,30.01,14,7,14,0.00
2012-8-17,85,82,76,-100,-100,-100,0,0,100,30.07,29.95,18,7,23,0.00
2012-8-18,89,82,75,-100,-100,-100,0,0,100,30.02,29.93,14,7,17,0.00
2012-8-19,86,83,80,-100,-100,-100,0,0,100,30.03,29.94,22,12,24,0.00
2012-8-20,86,83,81,-100,-100,-100,0,0,100,30.03,29.93,22,10,25,0.00
2012-8-21,85,82,74,-100,-100,-100,0,0,100,30.10,29.99,17,8,20,0.00
2012-8-22,86,81,75,-100,-100,-100,0,0,100,30.11,30.03,14,-8,18,0.00
2012-8-23,86,83,78,-100,-100,-100,0,0,100,30.10,30.03,16,7,20,0.00
2012-8-24,85,82,75,-100,-100,-100,0,0,100,30.06,29.95,24,13,26,0.00
2012-8-25,85,80,73,-100,-100,-100,0,0,100,29.99,29.90,31,19,34,0.00
2012-8-26,85,80,75,-100,-100,-100,0,0,100,29.91,29.72,38,29,51,0.00
2012-8-27,85,80,74,-100,-100,-100,0,0,100,29.96,29.75,44,30,52,0.00
2012-8-28,83,82,76,-100,-100,-100,0,0,100,30.03,29.93,32,17,46,0.00
2012-8-29,83,83,82,-100,-100,-100,0,0,100,30.02,29.94,18,15,21,0.00
2012-8-30,84,83,81,-100,-100,-100,0,0,100,30.12,29.98,15,10,16,0.00
2012-8-31,85,83,82,-100,-100,-100,0,0,100,30.17,30.08,10,7,11,0.00
2012-9-1,84,83,81,-100,-100,-100,0,0,100,30.14,30.04,18,12,21,0.00
2012-9-2,83,82,81,-100,-100,-100,0,0,100,30.07,29.99,16,12,18,0.00
2012-9-3,84,82,81,-100,-100,-100,0,0,100,30.07,29.99,15,8,16,0.00
2012-9-4,83,81,77,-100,-100,-100,0,0,100,30.06,29.96,17,8,29,0.00
2012-9-5,83,79,66,-100,-100,-100,0,0,100,30.03,29.94,31,3,58,0.00
2012-9-6,83,80,75,-100,-100,-100,0,0,100,30.05,29.98,20,-9,26,0.00
2012-9-7,83,81,75,-100,-100,-100,0,0,100,30.03,29.93,22,1,26,0.00
2012-9-8,86,82,79,-100,-100,-100,0,0,100,30.00,29.91,20,10,21,0.00
2012-9-9,91,84,79,-100,-100,-100,0,0,100,29.99,29.90,16,10,23,0.00
2012-9-10,87,81,77,-100,-100,-100,0,0,100,30.02,29.94,21,7,24,0.00
2012-9-11,84,81,77,-100,-100,-100,0,0,100,30.09,29.99,22,12,25,0.00
2012-9-12,84,82,74,-100,-100,-100,0,0,100,30.09,30.01,29,19,38,0.00
2012-9-13,84,82,74,-100,-100,-100,0,0,100,30.09,29.99,34,19,39,0.00
2012-9-14,83,82,78,-100,-100,-100,0,0,100,30.04,29.98,21,12,28,0.00
2012-9-15,83,81,74,-100,-100,-100,0,0,100,30.06,29.99,21,12,26,0.00
2012-9-16,83,82,79,-100,-100,-100,0,0,100,30.07,29.98,17,11,18,0.00
2012-9-17,82,81,79,-100,-100,-100,0,0,100,30.05,29.94,20,13,23,0.00
2012-9-18,85,82,76,-100,-100,-100,0,0,100,30.00,29.90,24,13,28,0.00
2012-9-19,86,81,77,-100,-100,-100,0,0,100,30.08,29.92,26,7,30,0.00
2012-9-20,83,81,76,-100,-100,-100,0,0,100,30.07,29.95,20,8,22,0.00
2012-9-21,85,81,75,-100,-100,-100,0,0,100,30.00,29.92,23,-6,26,0.00
2012-9-22,81,77,72,-100,-100,-100,0,0,100,30.04,29.93,29,-7,37,0.00
2012-9-23,81,79,75,-100,-100,-100,0,0,100,30.07,29.99,16,8,20,0.00
2012-9-24,83,80,77,-100,-100,-100,0,0,100,30.07,30.00,22,11,25,0.00
2012-9-25,83,82,78,-100,-100,-100,0,0,100,30.09,30.00,21,10,26,0.00
2012-9-26,84,82,80,-100,-100,-100,0,0,100,30.10,30.02,15,9,20,0.00
2012-9-27,85,82,79,-100,-100,-100,0,0,100,30.10,30.00,17,8,22,0.00
2012-9-28,83,82,79,-100,-100,-100,0,0,100,30.04,29.94,11,7,13,0.00
2012-9-29,86,82,78,-100,-100,-100,0,0,100,29.98,29.87,13,-15,14,0.00
2012-9-30,84,82,78,-100,-100,-100,0,0,100,29.92,29.81,17,8,18,0.00
2012-10-1,85,80,76,-100,-100,-100,0,0,100,29.89,29.79,28,13,31,0.00
2012-10-2,83,79,74,-100,-100,-100,0,0,100,30.07,29.87,24,12,28,0.00
2012-10-3,84,82,79,-100,-100,-100,0,0,100,30.18,30.06,14,9,15,0.00
2012-10-4,84,83,80,-100,-100,-100,0,0,100,30.18,30.07,22,10,25,0.00
2012-10-5,84,83,82,-100,-100,-100,0,0,100,30.12,29.96,14,10,21,0.00
2012-10-6,86,82,75,-100,-100,-100,0,0,100,30.00,29.86,24,-20,33,0.00
2012-10-7,83,79,73,-100,-100,-100,0,0,100,29.99,29.89,24,9,33,0.00
2012-10-8,85,82,81,-100,-100,-100,0,0,100,30.03,29.93,16,0,18,0.00
2012-10-9,83,81,77,-100,-100,-100,0,0,100,30.03,29.96,15,9,16,0.00
2012-10-10,83,81,79,-100,-100,-100,0,0,100,30.07,29.98,21,13,23,0.00
2012-10-11,81,80,79,-100,-100,-100,0,0,100,30.13,30.04,26,19,30,0.00
2012-10-12,80,80,79,-100,-100,-100,0,0,100,30.13,30.05,26,22,30,0.00
2012-10-13,81,80,79,-100,-100,-100,0,0,100,30.12,30.04,30,25,36,0.00
2012-10-14,82,81,80,-100,-100,-100,0,0,100,30.08,29.95,29,23,33,0.00
2012-10-15,82,81,80,-100,-100,-100,0,0,100,29.96,29.80,22,15,24,0.00
2012-10-16,81,79,74,-100,-100,-100,0,0,100,29.86,29.78,18,12,21,0.00
2012-10-17,81,78,70,-100,-100,-100,0,0,100,29.92,29.82,17,8,24,0.00
2012-10-18,83,80,75,-100,-100,-100,0,0,100,29.89,29.81,20,11,23,0.00
2012-10-19,82,79,74,-100,-100,-100,0,0,100,29.91,29.81,17,8,20,0.00
2012-10-20,80,78,75,-100,-100,-100,0,0,100,29.94,29.85,22,10,24,0.00
2012-10-21,80,78,73,-100,-100,-100,0,0,100,30.02,29.90,22,13,25,0.00
2012-10-22,80,79,78,-100,-100,-100,0,0,100,30.03,29.96,25,19,30,0.00
2012-10-23,81,79,74,-100,-100,-100,0,0,100,30.01,29.93,30,21,34,0.00
2012-10-24,81,80,74,-100,-100,-100,0,0,100,30.00,29.87,30,24,37,0.00
2012-10-25,81,80,72,-100,-100,-100,0,0,100,29.87,29.67,39,28,51,0.00
2012-10-26,81,76,70,-100,-100,-100,0,0,100,29.67,29.46,45,30,53,0.00
2012-10-27,77,73,70,-100,-100,-100,0,0,100,29.68,29.45,28,17,38,0.00
2012-10-28,78,72,67,-100,-100,-100,0,0,100,29.78,29.67,21,11,32,0.00
2012-10-29,70,64,58,-100,-100,-100,0,0,100,29.86,29.75,20,13,29,0.00
2012-10-30,71,62,55,-100,-100,-100,0,0,100,29.99,29.83,19,10,27,0.00
2012-10-31,72,64,58,-100,-100,-100,0,0,100,30.08,29.98,14,6,19,0.00
2012-11-1,78,69,60,-100,-100,-100,0,0,100,30.07,29.97,14,6,21,0.00
2012-11-2,77,71,65,-100,-100,-100,0,0,100,30.09,30.01,13,7,17,0.00
2012-11-3,77,72,63,-100,-100,-100,0,0,100,30.14,30.05,13,7,15,0.00
2012-11-4,80,73,65,-100,-100,-100,0,0,100,30.12,30.02,10,6,13,0.00
2012-11-5,78,72,67,-100,-100,-100,0,0,100,30.03,29.94,8,5,11,0.00
2012-11-6,81,73,68,-100,-100,-100,0,0,100,29.95,29.82,15,7,20,0.00
2012-11-7,69,66,60,-100,-100,-100,0,0,100,29.99,29.84,22,11,29,0.00
2012-11-8,67,61,56,-100,-100,-100,0,0,100,30.11,29.97,20,13,27,0.00
2012-11-9,72,67,59,-100,-100,-100,0,0,100,30.21,30.10,22,15,29,0.00
2012-11-10,74,73,71,-100,-100,-100,0,0,100,30.27,30.18,27,17,30,0.00
2012-11-11,77,76,74,-100,-100,-100,0,0,100,30.26,30.19,30,22,33,0.00
2012-11-12,77,77,76,-100,-100,-100,0,0,100,30.22,30.14,28,20,32,0.00
2012-11-13,78,77,76,-100,-100,-100,0,0,100,30.16,30.06,19,14,24,0.00
2012-11-14,78,76,76,-100,-100,-100,0,0,100,30.14,30.06,17,14,20,0.00
2012-11-15,76,74,68,-100,-100,-100,0,0,100,30.11,30.04,19,10,22,0.00
2012-11-16,75,69,65,-100,-100,-100,0,0,100,30.11,30.04,18,10,20,0.00
2012-11-17,76,73,66,-100,-100,-100,0,0,100,30.11,30.04,26,15,32,0.00
2012-11-18,76,73,69,-100,-100,-100,0,0,100,30.11,30.03,27,18,30,0.00
2012-11-19,69,65,60,-100,-100,-100,0,0,100,30.12,30.03,19,12,24,0.00
2012-11-20,73,65,60,-100,-100,-100,0,0,100,30.04,29.93,21,12,25,0.00
2012-11-21,73,66,61,-100,-100,-100,0,0,100,30.03,29.93,29,15,35,0.00
2012-11-22,71,64,59,-100,-100,-100,0,0,100,30.11,29.99,28,17,32,0.00
2012-11-23,73,65,58,-100,-100,-100,0,0,100,30.14,30.06,24,14,28,0.00
2012-11-24,74,65,55,-100,-100,-100,0,0,100,30.12,30.01,16,7,20,0.00
2012-11-25,74,66,56,-100,-100,-100,0,0,100,30.14,30.05,11,6,14,0.00
2012-11-26,76,73,64,-100,-100,-100,0,0,100,30.21,30.11,18,10,21,0.00
2012-11-27,76,75,73,-100,-100,-100,0,0,100,30.21,30.10,16,12,20,0.00
2012-11-28,75,71,67,-100,-100,-100,0,0,100,30.19,30.10,25,12,29,0.00
2012-11-29,75,74,71,-100,-100,-100,0,0,100,30.23,30.15,26,22,32,0.00
2012-11-30,74,73,73,-100,-100,-100,0,0,100,30.24,30.14,26,21,30,0.00
2012-12-1,75,74,74,-100,-100,-100,0,0,100,30.21,30.14,25,18,29,0.00
2012-12-2,76,75,74,-100,-100,-100,0,0,100,30.25,30.16,23,20,28,0.00
2012-12-3,75,74,73,-100,-100,-100,0,0,100,30.26,30.18,22,17,26,0.00
2012-12-4,76,74,73,-100,-100,-100,0,0,100,30.25,30.16,22,17,26,0.00
2012-12-5,76,74,72,-100,-100,-100,0,0,100,30.16,30.03,19,12,22,0.00
2012-12-6,76,74,71,-100,-100,-100,0,0,100,30.04,29.92,24,11,32,0.00
2012-12-7,76,75,71,-100,-100,-100,0,0,100,30.00,29.92,22,12,26,0.00
2012-12-8,78,77,75,-100,-100,-100,0,0,100,30.05,29.97,18,11,20,0.00
2012-12-9,79,76,71,-100,-100,-100,0,0,100,30.10,30.01,17,2,20,0.00
2012-12-10,79,77,73,-100,-100,-100,0,0,100,30.04,29.92,22,-70,26,0.00
2012-12-11,79,77,73,-100,-100,-100,0,0,100,30.07,29.92,24,15,26,0.00
2012-12-12,78,77,74,-100,-100,-100,0,0,100,30.10,30.03,25,-42,28,0.00
2012-12-13,76,72,67,-100,-100,-100,0,0,100,30.11,30.02,22,10,27,0.00
2012-12-14,76,72,65,-100,-100,-100,0,0,100,30.14,30.06,24,16,32,0.00
2012-12-15,76,75,74,-100,-100,-100,0,0,100,30.12,30.03,21,16,24,0.00
2012-12-16,76,75,72,-100,-100,-100,0,0,100,30.07,29.96,18,12,20,0.00
2012-12-17,80,74,69,-100,-100,-100,0,0,100,29.99,29.90,15,6,19,0.00
2012-12-18,82,75,69,-100,-100,-100,0,0,100,30.02,29.91,12,6,17,0.00
2012-12-19,77,72,63,-100,-100,-100,0,0,100,30.11,30.01,14,0,16,0.00
2012-12-20,76,75,73,-100,-100,-100,0,0,100,30.11,29.98,23,14,25,0.00
2012-12-21,73,64,52,-100,-100,-100,0,0,100,30.17,29.95,22,14,29,0.00
2012-12-22,65,54,46,-100,-100,-100,0,0,100,30.25,30.17,18,12,27,0.00
2012-12-23,70,62,52,-100,-100,-100,0,0,100,30.25,30.15,13,9,18,0.00
2012-12-24,74,68,62,-100,-100,-100,0,0,100,30.16,30.01,21,-5,23,0.00
2012-12-25,75,71,63,-100,-100,-100,0,0,100,30.06,29.95,24,11,28,0.00
2012-12-26,81,75,64,-100,-100,-100,0,0,100,29.98,29.84,25,16,32,0.00
2012-12-27,68,61,53,-100,-100,-100,0,0,100,30.08,29.98,16,0,20,0.00
2012-12-28,76,70,59,-100,-100,-100,0,0,100,30.10,29.98,21,11,24,0.00
2012-12-29,80,76,63,-100,-100,-100,0,0,100,30.10,29.93,23,15,28,0.00
2012-12-30,68,60,50,-100,-100,-100,0,0,100,30.30,30.10,28,18,34,0.00
2012-12-31,73,69,67,-100,-100,-100,0,0,100,30.32,30.21,22,16,28,0.00
2013-1-1,74,73,72,-100,-100,-100,0,0,100,30.21,30.07,22,14,27,0.00